Flag for Japan Weather past 2 weeks in Kumamoto, Japan

Now
79 °F

Clear.


Feels Like: 83 °F
Forecast: 74 / 94 °F
Wind: 3 mph from West

Location: Kumamoto

Current Time: Aug 5, 2015 at 4:04:41 AM

Latest Report: Aug 5, 2015 at 3:00 AM


Visibility: 6 mi

Pressure: 29.81 "Hg

Humidity: 84%

Dew point: 74 °F

Location of KumamotoLocation

Historic Weather in Kumamoto — Graph

°F

Kumamoto temperature yesterday

Maximum temperature yesterday: 93 °F (at 2:00 PM)
Minimum temperature yesterday: 77 °F (at 5:00 AM)
Average temperature yesterday: 85 °F

Past Weeks' High & Low Weather Summary

 TemperatureHumidityPressure
High95 °F (Aug 1, 2:00 PM)99% (Jul 23, 2:00 AM)29.95 "Hg (Jul 23, 2:00 AM)
Low74 °F (Jul 23, 12:00 AM)42% (Aug 2, 2:00 PM)29.67 "Hg (Jul 26, 3:00 PM)
Average83 °F75%29.85 "Hg
* Reported Jul 21 2:00 AM — Aug 5 2:00 AM, Kumamoto, Weather by CustomWeather, © 2015

Note: Actual official high and low records may vary slightly from our data, if they occured in-between our weather recording intervals... More about our weather records

Advertising

Kumamoto weather history for previous 24 hours

 ConditionsComfort  
Time TempWeatherWind HumidityBarometerVisibility
2:00 AM
Wed, Aug 5
81 °FWarm.2 mph82%29.81 "HgN/A
1:00 AM81 °FWarm.2 mph78%29.82 "HgN/A
12:00 AM82 °FWarm.3 mph75%29.82 "HgN/A
11:00 PM
Tue, Aug 4
83 °FWarm.3 mph73%29.83 "HgN/A
10:00 PM84 °FWarm.5 mph69%29.83 "HgN/A
9:00 PM85 °FOvercast.5 mph69%29.83 "Hg9 mi
8:00 PM86 °FWarm.6 mph68%29.81 "HgN/A
7:00 PM87 °FWarm.6 mph64%29.78 "HgN/A
6:00 PM90 °FOvercast.7 mph61%29.77 "Hg12 mi
5:00 PM91 °FHot.5 mph50%29.78 "HgN/A
4:00 PM93 °FHot.7 mph51%29.76 "HgN/A
3:00 PM93 °FPassing clouds.12 mph46%29.77 "Hg16 mi
2:00 PM93 °FHot.8 mph52%29.78 "HgN/A
1:00 PM92 °FHot.10 mph57%29.80 "HgN/A
12:00 PM90 °FPassing clouds.3 mph61%29.82 "Hg12 mi
11:00 AM88 °FHot.2 mph63%29.84 "HgN/A
10:00 AM86 °FWarm.5 mph67%29.86 "HgN/A
9:00 AM84 °FScattered clouds.2 mph72%29.87 "Hg9 mi
8:00 AM82 °FWarm.3 mph79%29.88 "HgN/A
7:00 AM78 °FWarm.1 mph84%29.89 "HgN/A
6:00 AM77 °FOvercast.2 mph84%29.88 "Hg9 mi
5:00 AM77 °FWarm.1 mph84%29.87 "HgN/A
4:00 AM78 °FWarm.1 mph82%29.86 "HgN/A
Weather by CustomWeather, © 2015

See weather overviewHow to use our weather pages